www.pogodaiklimat.ru

Погода и климат >> Архив погоды >> Казахстан >> Ушарал


АРХИВ ПОГОДЫ в Ушарале

Время (UTC), дата Ветер
(напр.,м/с)
 
Видим.   Явления Облачность Т
(С)
Тd
(С)
f
(%)
Тe
(С)
Тes
(С)
Комфортность P
(гПа)
Po
(гПа)
Тmin
(С)
Tmax
(С)
R
(мм)
R24
(мм)
S
(см)
00 12.06 штиль 0
{8}
20 км 10/4 600 м
[Cb cap Ac trans Cs]
+14.4 +11.1 81 +14 +14 1016.2 971.0
03 12.06 ЮЗ 3 20 км 10/0
[Ac As Cs]
+16.4 +12.5 78 +16 +19 1016.5 971.6
06 12.06 С 1 20 км 10/6 600 м
[Cb cap Ac trans Cs]
+18.6 +12.4 67 +20 +25 1015.3 970.8 +13.0
09 12.06 штиль 0 20 км 10/4 600 м
[Cb cap Ci fib]
+21.4 +10.2 49 +23 +32 комфорт 1013.0 968.9
12 12.06 ЮЗ 2 20 км 10/3 600 м
[Cb cap Ci fib]
+20.0 +10.4 54 +22 +24 комфорт 1013.3 969.0
18 12.06 штиль 0 20 км ясно +13.2 +9.1 76 +13 +13 1013.5 968.2 +21.4
00 13.06 штиль 0
{6}
20 км 6/6 600 м
[Cb cap]
+12.3 +10.0 86 +12 +12 1013.8 968.3
03 13.06 штиль 0 20 км 8/6 600 м
[Cb cap Ac trans]
+20.0 +12.1 60 +21 +25 комфорт 1012.4 968.2
06 13.06 С 1 20 км в посл. час ливневой дождь 10/8 600 м
[Cb cap Ci fib]
+19.9 +12.4 62 +23 +30 комфорт 1011.8 967.6 +10.4
09 13.06 штиль 0 4000 м слаб. ливневой дождь 10/10 600 м
[Cb cap]
+16.5 +14.6 89 +16 +16 1012.4 967.7
12 13.06 В 3 20 км в посл. час ливневой дождь 10/8 600 м
[Cb cap Ci fib]
+16.4 +14.7 90 +16 +16 1011.3 966.6
15 13.06 В 2 20 км 8/4 1000 м
[Sc Ac trans Ci fib]
+15.2 +13.6 90 +15 +15 1011.5 966.7 +21.1
18 13.06 В 1 20 км ясно +13.8 +12.7 93 +14 +14 1010.8 965.7 +21.1 6
00 14.06 штиль 0
{6}
20 км ясно +13.6 +12.1 91 +13 +14 1010.0 964.9
03 14.06 В 2 20 км ясно +20.0 +14.2 69 +23 +32 комфорт 1008.6 964.6
06 14.06 В 2 20 км 3/1 1000 м
[Cu med, cong Ci fib]
+24.9 +16.2 58 +28 +44 жарко 1006.2 963.1 +12.2
12 14.06 штиль 0 20 км 6/0
[Ci fib]
+27.8 +13.1 40 1002.8
18 14.06 штиль 0 20 км 3/3 600 м
[Cb cap]
+18.6 +14.9 79 +19 +19 1003.9 959.9 +28.9
21 14.06 З 4 4000 м слаб. ливневой дождь 10/10 600 м
[Cb cap]
+18.8 +13.5 71 +20 +20 1004.6 960.6
00 15.06 ЮЗ 2
{13}
20 км {ливн. осадки} 10/10 600 м
[Cb cap]
+19.0 +13.1 69 +21 +21 комфорт 1005.3 961.2
03 15.06 В 3 20 км 8/8 600 м
[Cb cap]
+22.5 +14.3 60 +26 +28 жарко 1005.2 961.8
06 15.06 штиль 0 20 км 8/6 600 м
[Cb cap Ac trans]
+26.8 +13.9 45 +29 +36 жарко 1003.9 961.1 +18.6 2
09 15.06 В 2 20 км 1/1 1000 м
[Cu hum]
+28.4 +14.8 43 +31 +44 душно 1002.2 959.7
12 15.06 В 3 20 км 6/3 600 м
[Cb cap Cs]
+27.0 +12.9 42 +29 +31 жарко 1001.4 958.7
15 15.06 В 1 20 км {гроза, ливн. осадки} 10/10 600 м
[Cb cap]
+18.2 +16.2 88 +20 +20 1005.7 961.6 +29.0
18 15.06 штиль 0 20 км в посл. час ливневой дождь {гроза} 10/10 600 м
[Cb cap]
+18.0 +15.0 83 +18 +18 1006.3 962.1 +29.0 4
00 16.06 ЮЗ 6
{14}
20 км 10/10 600 м
[Cb cap]
+22.0 +11.0 50 +24 +24 комфорт 1005.9 962.3
03 16.06 З 4 20 км {ливн. осадки} 10/10 600 м
[Cb cap]
+20.2 +13.3 65 +22 +22 комфорт 1009.4 965.4
06 16.06 З 3 20 км {ливн. осадки} 10/10 600 м
[Cb cap]
+17.8 +13.6 76 +18 +18 1010.5 966.1 +17.0 0.5
09 16.06 ЮЗ 2 20 км 10/10 600 м
[Cb cap]
+19.3 +13.8 70 +21 +21 комфорт 1010.7 966.6
12 16.06 З 2 20 км 8/4 600 м
[Cb cap Ci fib]
+19.6 +8.7 49 +21 +21 комфорт 1011.3 967.0 +20.4
15 16.06 штиль 0 20 км 8/4 600 м
[Cb cap Ci fib]
+15.2 +11.1 77 +15 +15 1013.6 968.8 +20.4
18 16.06 ЮЗ 1 20 км 4/0
[Ci fib]
+13.3 +9.6 78 +14 +14 1014.4 969.1 +20.4 0.4
21 16.06 ЮЗ 1 20 км ясно +12.9 +9.6 80 +13 +13 1013.7 968.3
00 17.06 штиль 0
{14}
20 км ясно +13.5 +9.9 79 +13 +14 1012.6 967.4
03 17.06 штиль 0 20 км 4/0
[Ci fib]
+19.8 +12.9 64 +21 +33 комфорт 1011.4 967.2
06 17.06 В 2 20 км 6/1 1000 м
[Cu med, cong Ac cast Cc]
+23.3 +11.6 48 +26 +38 жарко 1009.9 966.3 +12.5
09 17.06 В 3 20 км 8/0
[Ac trans Cc]
+26.2 +11.3 39 +27 +36 жарко 1007.9 964.8
12 17.06 В 2 20 км 8/3 1000 м
[Cu med, cong Ac trans Ci fib]
+25.8 +13.8 47 +28 +29 жарко 1006.8 963.7
15 17.06 СЗ 2 20 км 8/6 600 м
[Cb cap Cs]
+20.8 +13.4 63 +24 +24 комфорт 1008.5 964.7 +28.0
18 17.06 Ю 1 20 км {ливн. осадки} 6/0
[Ac trans Ci fib]
+19.9 +11.6 59 +23 +23 комфорт 1007.5 963.5 +28.0
21 17.06 штиль 0 20 км 8/3 600 м
[Cb cap Ci fib]
+15.2 +12.1 82 +15 +15 1006.3 961.6
00 18.06 штиль 0
{7}
20 км 6/0
[Ci fib]
+15.9 +12.3 79 +16 +17 1005.8 961.3
03 18.06 С 2 20 км 3/0
[Ci fib]
+22.4 +15.5 65 +26 +35 жарко 1004.8 961.3
06 18.06 СВ 1 20 км ясно +28.4 +15.6 46 +31 +53 опасность
солнечного
удара
1003.4 960.8 +14.0 0.0
12 18.06 Ю 3 20 км 9/9 600 м
[Cb cap]
+30.1 +11.5 32 +31 +31 жарко 1001.4 959.1
18 18.06 ЮЗ 3 20 км 8/8 600 м
[Cb cap]
+22.0 +11.0 50 +24 +24 комфорт 1007.1 963.4 +32.9

 

Местоположение метеостанции Ушарал (Алматинская область, Казахстан): широта 46.17 долгота 80.93 высота над уровнем моря 397 м.

В архиве по умолчанию представлена погода в Ушарале за последнюю неделю. Архивные данные за месяц целиком и за предыдущие месяцы, начиная с января 2011 года, Вы можете получить, выбрав интересующий диапазон дат из раскрывающегося списка и нажав кнопку "Ввод!".


*Определитесь, кто Вы:
робот инопланетянин человек

Внимание! Время в таблицах - всемирное. Для получения местного времени необходимо прибавить поправку, которая равна 5 ч.

Смотрите также архив погоды в соседних городах и на ближайших метеорологических станциях:

Погода в Акжаре 2 (Алматинская область, Казахстан) (46 км)
Погода в Лепси (Алматинская область, Казахстан) (75 км)
Погода в Узынбулаке (Алматинская область, Казахстан) (103 км)
Погода в Сарканде (Алматинская область, Казахстан) (114 км)
Погода в Карабогете (Алматинская область, Казахстан) (116 км)
Погода в Урджаре (Восточно-Казахстанская область, Казахстан) (118 км)
Погода в Жансугурове (Алматинская область, Казахстан) (142 км)
Погода в Бахты (Восточно-Казахстанская область, Казахстан) (149 км)
Погода в Достыке (Алматинская область, Казахстан) (157 км)
Погода в Таченге (Синьцзян-Уйгурский автономный район, Китай) (170 км)

Пояснения к столбцам:

Ветер - указаны скорость ветра в м/с - средняя за 10 мин, порывы в срок и между сроками (в фигурных скобках) и направление, откуда дует ветер: С - северный, СВ - северо-восточный, В - восточный, ЮВ - юго-восточный, Ю - южный, ЮЗ - юго-западный, З - западный, СЗ - северо-западный.
Видимость - горизонтальная дальность видимости в метрах или километрах. При видимости от 1 до 10 км при отсутствии осадков обычно наблюдается дымка, при ухудшении видимости до 1 км и менее - туман. В сухую погоду видимость может ухудшаться дымом, пылью или мглою.
Явления - указаны атмосферные явления, наблюдавшиеся в срок или в последний час перед сроком; фигурными скобками обозначены явления, наблюдавшиеся между сроками (за 1-3 часа до срока); квадратными скобками обозначены град или гололедные отложения с указанием их диаметра в мм.
Облачность - указаны через наклонную черту общая и нижняя облачность в баллах и высота нижней границы облаков в метрах; квадратными скобками обозначены формы облаков: Ci - перистые, Cs - перисто-слоистые, Cc - перисто-кучевые, Ac - высококучевые, As - высокослоистые, Sc - слоисто-кучевые, Ns - слоисто-дождевые, Cu - кучевые, Cb - кучево-дождевые. Подробнее классификацию облаков см. в Атласе облаков (PDF).
T - Температура воздуха - температура, измеренная на высоте 2 м над землей.
Td - Температура точки росы - температура, при понижении до которой содержащийся в воздухе водяной пар достигнет насыщения.
f - Относительная влажность воздуха - влажноcть воздуха, измеренная на высоте 2 м над землей.
Te - Эффективная температура - температура, которую ощущает одетый по сезону человек в тени. Характеристика душности погоды. При расчете учитывается влияние влажности воздуха и скорости ветра на теплоощущения человека.
Tes - Эффективная температура на солнце - температура, которую ощущает человек, с поправкой на солнечный нагрев. Характеристика знойности погоды. Зависит от высоты солнца над горизонтом, облачности и скорости ветра. Ночью, в пасмурную погоду, а также при ветре 12 м/с и более поправка равна нулю.
P - Атмосферное давление - приведенное к уровню моря атмосферное давление.
Po - Атмосферное давление - измеренное на уровне метеостанции атмосферное давление.
Tmin - Минимальная температура - минимум температуры воздуха на высоте 2 м над землей.
Tmax - Максимальная температура - максимум температуры воздуха на высоте 2 м над землей.
R - Количество осадков - Количество выпавших осадков за период времени, мм. При наведении курсора мыши на число - период времени, за который выпало указанное количество осадков.
R24 - Количество осадков - Количество выпавших осадков за 24 часа, мм.
S - Снежный покров - Высота снежного покрова, см. При наведении курсора мыши на число - состояние снежного покрова и степень покрытия местности в баллах.